Regional Weather Roundup
Issued by NWS Mt. Holly, NJ

Home | Current Version | Previous Version | Text Only | Print | Product List | Glossary On
Versions: 1 2 3 4 5 6 7 8 9 10 11 12 13 14 15 16 17 18 19 20 21 22 23 24 25 26 27
000
ASUS41 KPHI 052212
RWRPHI

REGIONAL WEATHER ROUNDUP
NATIONAL WEATHER SERVICE MOUNT HOLLY NJ
600 PM EDT THU MAY 05 2016

NOTE:  "FAIR" INDICATES FEW OR NO CLOUDS BELOW 12,000 FEET WITH NO
SIGNIFICANT WEATHER AND/OR OBSTRUCTIONS TO VISIBILITY.

 * = STATION DOES NOT REPORT PRECIPITATION (E.G. RAIN, SNOW, ETC.)
        OR FOG.

NJZ015>026-052300-
SOUTHERN NEW JERSEY

CITY           SKY/WX    TMP DP  RH WIND       PRES   REMARKS
POMONA         CLOUDY    52  46  80 NE13      29.61S
WILDWOOD*      CLOUDY   N/A N/A N/A N9        29.62F
MILLVILLE      CLOUDY    54  45  71 NE9       29.62R
WRIGHTSTOWN    CLOUDY    56  46  69 N12       29.60S
MOUNT HOLLY    CLOUDY    56  45  66 NE8       29.62S
TRENTON        CLOUDY    57  45  64 NE9       29.62F

$$
NJZ001>014-052300-
NORTHERN NEW JERSEY

CITY           SKY/WX    TMP DP  RH WIND       PRES   REMARKS
SUSSEX         CLOUDY    56  43  61 NE9       29.66R
ANDOVER*         N/A     55  44  66 VRB7      29.65
MORRISTOWN     CLOUDY    57  41  54 E9        29.64S
NEWARK         CLOUDY    57  44  62 NE15G21   29.63S
TETERBORO      CLOUDY    57  41  55 NE10      29.63S
CALDWELL       CLOUDY    57  43  59 NE9G20    29.64R
SOMERVILLE     CLOUDY    59  44  57 NE6       29.61F
ALLAIRE*       CLOUDY    54  44  69 NE18      29.63S
TOMS RIVER*    CLOUDY    54  43  66 N13       29.62F

$$
PAZ043-044-047-054-055-060>062-066>071-052300-
EASTERN PENNSYLVANIA

CITY           SKY/WX    TMP DP  RH WIND       PRES   REMARKS
PHILADELPHIA   CLOUDY    58  45  62 NE8       29.63S
NORTH PHILA    CLOUDY    58  46  64 NE13      29.64S
BLUE BELL*     CLOUDY    54  45  71 CALM      29.62S
DOYLESTOWN     CLOUDY    54  45  71 N9        29.62S
QUAKERTOWN*    CLOUDY    55  46  71 NE7       29.64S
PERKASIE*      CLOUDY    55  46  71 NE12      29.64S
POTTSTOWN      CLOUDY    56  46  69 N7        29.64S
LANCASTER      CLOUDY    56  48  74 N10       29.64S
COATESVILLE    CLOUDY    55  50  82 MISG      29.65R
READING        CLOUDY    58  45  62 N7        29.62S
ALLENTOWN      CLOUDY    59  46  62 NE7       29.64S
MOUNT POCONO   CLOUDY    50  42  74 N5        29.65R
HAZLETON       CLOUDY    54  43  66 N9        29.68S
LEHIGHTON      CLOUDY    59  45  58 N5        29.65S
WILKES BARRE   CLOUDY    56  44  64 N8        29.65F

$$
DEZALL-MDZ008-012-015-019-020-052300-
DELAWARE AND EASTERN MARYLAND

CITY           SKY/WX    TMP DP  RH WIND       PRES   REMARKS
WILMINGTON     CLOUDY    56  46  69 N10       29.64R
DOVER          CLOUDY    53  50  89 N7        29.62S
GEORGETOWN     CLOUDY    52  47  83 NE12      29.62S
EASTON         CLOUDY   N/A N/A N/A NE9       29.66R
ABERDEEN       CLOUDY    55  48  76 NE8       29.65S
PATUXENT       CLOUDY    54  46  74 NE14      29.61S
OCEAN CITY     CLOUDY    50  46  86 NE14G22   29.60S
WALLOPS ISLAND CLOUDY    52  46  80 NE20G25   29.60R
CAMBRIDGE      PTSUNNY   52  46  82 N5        29.61S
SALISBURY      CLOUDY    52  48  86 NE10      29.61R

$$
PAZ001-021-NYZ056-072-MDZ011-DCZ001-052300-
OTHER NEARBY LOCATIONS

CITY           SKY/WX    TMP DP  RH WIND       PRES   REMARKS
HARRISBURG     CLOUDY    58  44  60 NE8       29.64S
STATE COLLEGE  CLOUDY    55  43  62 NE13      29.68R
WILLIAMSPORT   CLOUDY    58  42  55 NE6       29.68R
BINGHAMTON     CLOUDY    53  42  66 NE9       29.70S
NEW YORK CITY  CLOUDY    56  42  59 NE8       29.66S
BALTIMORE      CLOUDY    55  46  71 NE8       29.63S
WASHINGTON DC  LGT RAIN  56  49  77 NE12      29.64R

$$




USA.gov is the U.S. government's official web portal to all federal, state and local government web resources and services.